Regional Weather Roundup
Issued by NWS

Current Version | Previous Version | Text Only | Print | Product List | Glossary On
Versions: 1 2 3 4 5 6 7 8 9 10 11 12 13 14 15 16 17 18 19 20 21 22 23 24 25 26 27 28
000
ASUS45 KSLC 251610
RWRUT

UTAH REGIONAL WEATHER ROUNDUP
NATIONAL WEATHER SERVICE SALT LAKE CITY UT
1000 AM MDT SUN SEP 25 2016

UTZ001>011-023>025-251700-

NORTHERN UTAH

CITY           SKY/WX    TMP DP  RH WIND       PRES   REMARKS
BRIGHAM CITY     N/A     49  42  76 CALM      30.50R
HILL AFB       SUNNY     51  39  63 E10       30.49R
LOGAN          SUNNY     47  43  86 CALM      30.52R
OGDEN          SUNNY     55  40  56 N7        30.49R
PROVO AIRPORT  SUNNY     50  42  74 S7        30.51R
SALT LAKE CITY SUNNY     55  40  56 CALM      30.48R
VERNAL         SUNNY     51  39  63 E3        30.52R
WENDOVER       SUNNY     54  39  58 CALM      30.50R
HEBER CITY     SUNNY     41  34  75 CALM      30.53R
WEST JORDAN    SUNNY     54  43  68 CALM      30.49R

$$

UTZ012>022-026-027-251700-

SOUTHERN/CENTRAL UTAH

CITY           SKY/WX    TMP DP  RH WIND       PRES   REMARKS
BLANDING       SUNNY     59  30  33 NE23G30   30.47R
BRYCE CANYON   SUNNY     46  31  55 NE14      30.50S
CEDAR CITY     SUNNY     54  35  48 N7        30.45R
DELTA          SUNNY     54  41  62 N3        30.48R
MILFORD        SUNNY     56  40  55 N17       30.45R
MOAB/CYNLANDS  SUNNY     60  35  39 NE13      30.43R
PRICE          SUNNY     51  33  50 SW3       30.50R
ST GEORGE      SUNNY     68  36  30 NE15G26   30.35R

$$

REGIONAL REPORTS     COLORADO/ARIZONA

CITY           SKY/WX    TMP DP  RH WIND       PRES   REMARKS
CRAIG, CO      CLOUDY    40  39  97 CALM      30.55R FOG
GRAND JUNCTION SUNNY     53  40  61 S3        30.47R
RIFLE          SUNNY     49  41  74 CALM      30.51R
MONTROSE       SUNNY     52  38  58 CALM      30.51R
CORTEZ         SUNNY     53  35  50 CALM      30.41R
PAGE, AZ       SUNNY     65  33  30 N10       30.37R
GRAND CANYON   SUNNY     54  32  43 E18G28    30.42R
KINGMAN        SUNNY     66  32  28 N9        30.26R
FLAGSTAFF      SUNNY     51  33  50 NE25G35   30.37R

$$

REGIONAL REPORTS    NEVADA/IDAHO/WYOMING

CITY           SKY/WX    TMP DP  RH WIND       PRES   REMARKS
LAS VEGAS, NV  SUNNY     75  32  20 NE7       30.27F
ELY            SUNNY     47  32  56 NW6       30.52R
ELKO           SUNNY     48  34  58 E5        30.52R
POCATELLO, ID  SUNNY     48  39  71 CALM      30.51S
BURLEY         SUNNY     53  38  56 NW3       30.49R
EVANSTON, WY   SUNNY     44  35  70 SE3       30.56R
ROCK SPRINGS   SUNNY     45  36  70 SW8       30.53R

$$




USA.gov is the U.S. government's official web portal to all federal, state and local government web resources and services.